Starlink 11142

operational
NORAD ID: 59957 Int'l Des: 2024-107 Owner: SPXS Country: US Constellation: starlink
LEOCIRCULAR

Starlink 11142について

説明を読み込み中...

リアルタイム位置

3D地球を読み込み中...

次回通過

高度履歴

Altitude vs Time

uPlot chart will show altitude changes over time

軌道要素

1 59957U 24107N 25260.59470285 .00003255 00000-0 31711-4 0 9996
2 59957 53.1595 24.2500 0001045 95.3051 264.8086 15.69714032 74970
Epoch: Sep 17, 2025 • Age: 27 hours

現在のステータス

高度 366.0 km
速度 7.69 km/s
衛星直下点 -20.90°S, 99.21°E
打ち上げ日 Jun 5, 2024
運用期間 1.2 years
タイプ internet

技術仕様

分類 Payload
質量 960.00 kg
乾燥質量 910.00 kg
総質量 960.00 kg
長さ 0.30 m
直径 4.10 m
スパン 29.00 m
形状 Box + pan
製造者 SPXS
バスタイプ Starlink V2MD
フェーズステータス In Orbit
所有者/国 SPXS/US

大規模コンステレーション

Loading constellations...